QPF
0.00 0.00 0.00 0.00 0.00 0.00 0.00 0.00 0.00 0.00 0.00 0.00 0.00 0.00 0.00 0.00 0.00 0.00 0.00 0.00 0.00 0.00 0.00 0.00 0.00 0.00 0.01 0.01 0.01 0.01 0.02 0.02 0.02 0.02 0.02 0.03 0.03 0.04
0.01 0.01 0.01 0.00 0.00 0.00 0.00 0.00 0.00 0.00 0.00 0.00 0.00 0.00 0.00 0.00 0.00 0.00 0.00 0.00 0.00 0.00 0.00 0.00 0.00 0.00 0.01 0.01 0.01 0.01 0.01 0.02 0.02 0.03 0.03 0.04 0.04 0.05
0.01 0.01 0.00 0.00 0.00 0.00 0.00 0.00 0.00 0.00 0.00 0.00 0.00 0.00 0.00 0.00 0.00 0.00 0.00 0.00 0.00 0.00 0.00 0.00 0.00 0.01 0.01 0.01 0.01 0.01 0.02 0.02 0.02 0.03 0.03 0.04 0.04 0.04
0.00 0.00 0.00 0.00 0.00 0.00 0.00 0.00 0.00 0.00 0.00 0.00 0.00 0.00 0.00 0.00 0.00 0.00 0.00 0.00 0.00 0.00 0.00 0.00 0.00 0.01 0.01 0.01 0.01 0.02 0.02 0.02 0.02 0.03 0.03 0.03 0.03 0.04
0.00 0.00 0.00 0.00 0.00 0.00 0.00 0.00 0.00 0.00 0.00 0.00 0.00 0.00 0.00 0.00 0.00 0.00 0.00 0.00 0.00 0.00 0.00 0.00 0.00 0.00 0.01 0.01 0.01 0.01 0.02 0.02 0.02 0.02 0.02 0.03 0.03 0.04
0.00 0.00 0.00 0.00 0.00 0.00 0.00 0.00 0.00 0.00 0.00 0.00 0.00 0.00 0.00 0.00 0.00 0.00 0.00 0.00 0.00 0.00 0.00 0.00 0.00 0.00 0.00 0.00 0.01 0.01 0.01 0.01 0.02 0.02 0.03 0.03 0.04 0.04
0.00 0.00 0.00 0.00 0.00 0.00 0.00 0.00 0.00 0.00 0.00 0.00 0.00 0.00 0.00 0.00 0.00 0.00 0.00 0.00 0.00 0.00 0.00 0.00 0.00 0.00 0.00 0.00 0.00 0.00 0.01 0.01 0.02 0.03 0.03 0.04 0.04 0.04
0.00 0.00 0.00 0.00 0.00 0.00 0.00 0.00 0.00 0.00 0.00 0.01 0.01 0.01 0.00 0.00 0.00 0.00 0.01 0.01 0.01 0.00 0.00 0.00 0.00 0.00 0.00 0.00 0.00 0.00 0.01 0.02 0.03 0.04 0.04 0.04 0.04 0.04
0.00 0.00 0.00 0.00 0.00 0.00 0.01 0.01 0.01 0.01 0.00 0.01 0.01 0.00 0.00 0.01 0.01 0.01 0.01 0.02 0.02 0.01 0.01 0.01 0.00 0.00 0.00 0.00 0.00 0.00 0.01 0.02 0.02 0.02 0.03 0.03 0.03 0.03
0.00 0.00 0.00 0.00 0.01 0.01 0.01 0.00 0.00 0.00 0.00 0.00 0.00 0.00 0.01 0.01 0.02 0.02 0.03 0.03 0.02 0.01 0.01 0.02 0.00 0.00 0.00 0.00 0.00 0.00 0.01 0.01 0.01 0.01 0.02 0.02 0.02 0.03
0.01 0.01 0.01 0.01 0.01 0.01 0.01 0.00 0.00 0.00 0.00 0.00 0.01 0.01 0.01 0.01 0.02 0.02 0.02 0.02 0.02 0.01 0.01 0.02 0.01 0.00 0.00 0.00 0.00 0.00 0.00 0.00 0.01 0.01 0.01 0.02 0.02 0.03
0.00 0.00 0.00 0.00 0.00 0.01 0.01 0.01 0.01 0.00 0.00 0.00 0.00 0.00 0.00 0.00 0.00 0.01 0.01 0.02 0.02 0.02 0.01 0.01 0.01 0.01 0.01 0.00 0.00 0.00 0.00 0.00 0.00 0.00 0.01 0.01 0.02 0.02
0.00 0.00 0.00 0.00 0.00 0.01 0.01 0.01 0.01 0.01 0.01 0.01 0.01 0.00 0.00 0.00 0.00 0.00 0.00 0.01 0.02 0.02 0.01 0.03 0.03 0.02 0.02 0.01 0.00 0.00 0.00 0.00 0.00 0.00 0.00 0.00 0.01 0.02
0.00 0.00 0.00 0.00 0.01 0.01 0.00 0.00 0.00 0.01 0.00 0.00 0.00 0.00 0.00 0.00 0.00 0.00 0.01 0.01 0.01 0.01 0.01 0.03 0.04 0.03 0.03 0.02 0.00 0.00 0.00 0.00 0.00 0.00 0.00 0.00 0.00 0.01
0.00 0.00 0.00 0.00 0.00 0.00 0.00 0.00 0.00 0.00 0.00 0.00 0.00 0.00 0.00 0.00 0.00 0.01 0.00 0.00 0.01 0.01 0.01 0.01 0.02 0.02 0.03 0.02 0.01 0.00 0.00 0.00 0.00 0.00 0.00 0.00 0.00 0.01
0.00 0.00 0.00 0.00 0.00 0.00 0.00 0.00 0.00 0.00 0.00 0.00 0.00 0.00 0.00 0.00 0.00 0.00 0.01 0.01 0.01 0.01 0.01 0.01 0.01 0.02 0.02 0.02 0.01 0.01 0.01 0.01 0.00 0.00 0.00 0.00 0.01 0.01
0.00 0.00 0.00 0.00 0.00 0.00 0.00 0.00 0.00 0.00 0.00 0.00 0.00 0.00 0.00 0.00 0.00 0.00 0.01 0.01 0.01 0.01 0.01 0.01 0.01 0.01 0.02 0.01 0.01 0.00 0.00 0.00 0.00 0.01 0.01 0.01 0.01 0.01
0.00 0.00 0.00 0.00 0.00 0.00 0.00 0.00 0.00 0.00 0.00 0.00 0.00 0.00 0.00 0.00 0.00 0.00 0.01 0.01 0.01 0.01 0.01 0.01 0.01 0.01 0.01 0.01 0.01 0.00 0.00 0.00 0.00 0.00 0.01 0.01 0.01 0.01
0.00 0.00 0.00 0.00 0.00 0.00 0.00 0.00 0.00 0.00 0.00 0.00 0.01 0.01 0.01 0.01 0.01 0.00 0.01 0.01 0.01 0.01 0.01 0.01 0.01 0.01 0.01 0.00 0.00 0.00 0.00 0.00 0.00 0.00 0.01 0.01 0.01 0.01
0.00 0.00 0.00 0.00 0.00 0.00 0.00 0.00 0.00 0.00 0.00 0.00 0.00 0.00 0.01 0.01 0.01 0.01 0.00 0.01 0.01 0.01 0.00 0.00 0.01 0.01 0.02 0.01 0.01 0.00 0.00 0.00 0.01 0.01 0.01 0.00 0.00 0.00
0.00 0.00 0.00 0.00 0.00 0.00 0.00 0.00 0.00 0.01 0.00 0.00 0.00 0.00 0.01 0.01 0.01 0.01 0.01 0.01 0.01 0.01 0.01 0.00 0.01 0.01 0.01 0.01 0.01 0.00 0.00 0.00 0.01 0.01 0.01 0.01 0.01 0.00
0.00 0.00 0.00 0.00 0.00 0.00 0.00 0.00 0.00 0.01 0.01 0.01 0.01 0.01 0.01 0.01 0.01 0.01 0.01 0.01 0.01 0.01 0.01 0.00 0.00 0.00 0.01 0.01 0.00 0.00 0.00 0.00 0.00 0.00 0.01 0.01 0.02 0.03
0.00 0.00 0.00 0.00 0.00 0.00 0.00 0.00 0.01 0.01 0.01 0.01 0.01 0.01 0.01 0.01 0.01 0.01 0.01 0.01 0.01 0.01 0.01 0.01 0.00 0.00 0.00 0.00 0.00 0.00 0.00 0.00 0.00 0.00 0.00 0.01 0.01 0.02
MSLP
1023.08 1023.48 1023.85 1024.16 1024.38 1024.49 1024.49 1024.38 1024.17 1023.90 1023.59 1023.26 1022.94 1022.63 1022.35 1022.08 1021.81 1021.53 1021.24 1020.94 1020.62 1020.28 1019.94 1019.59 1019.25 1018.91 1018.57 1018.21 1017.85 1017.47 1017.08 1016.69 1016.29 1015.91 1015.54 1015.20 1014.90 1014.62
1022.60 1023.01 1023.40 1023.72 1023.96 1024.11 1024.14 1024.08 1023.93 1023.71 1023.45 1023.15 1022.85 1022.53 1022.22 1021.89 1021.55 1021.20 1020.84 1020.47 1020.10 1019.73 1019.38 1019.03 1018.70 1018.38 1018.04 1017.69 1017.32 1016.93 1016.51 1016.08 1015.66 1015.26 1014.88 1014.54 1014.24 1013.98
1021.99 1022.42 1022.80 1023.14 1023.39 1023.56 1023.64 1023.62 1023.53 1023.38 1023.17 1022.92 1022.65 1022.34 1022.00 1021.63 1021.23 1020.80 1020.37 1019.93 1019.50 1019.10 1018.72 1018.38 1018.06 1017.75 1017.43 1017.09 1016.72 1016.32 1015.88 1015.44 1015.00 1014.57 1014.19 1013.85 1013.55 1013.29
1021.29 1021.72 1022.11 1022.44 1022.70 1022.88 1022.98 1023.00 1022.97 1022.87 1022.73 1022.53 1022.29 1022.00 1021.65 1021.25 1020.80 1020.32 1019.82 1019.32 1018.85 1018.41 1018.02 1017.68 1017.37 1017.07 1016.77 1016.45 1016.09 1015.69 1015.25 1014.80 1014.35 1013.91 1013.52 1013.17 1012.87 1012.60
1020.54 1020.97 1021.35 1021.66 1021.91 1022.09 1022.20 1022.25 1022.24 1022.20 1022.10 1021.96 1021.75 1021.49 1021.15 1020.74 1020.27 1019.75 1019.21 1018.68 1018.17 1017.72 1017.32 1016.98 1016.67 1016.40 1016.12 1015.81 1015.47 1015.08 1014.65 1014.19 1013.74 1013.30 1012.89 1012.53 1012.21 1011.93
1019.79 1020.21 1020.57 1020.86 1021.08 1021.23 1021.33 1021.38 1021.39 1021.37 1021.31 1021.20 1021.04 1020.81 1020.50 1020.11 1019.64 1019.12 1018.57 1018.02 1017.51 1017.04 1016.64 1016.31 1016.01 1015.75 1015.48 1015.19 1014.86 1014.48 1014.06 1013.62 1013.16 1012.72 1012.31 1011.94 1011.60 1011.29
1019.08 1019.47 1019.81 1020.07 1020.25 1020.36 1020.43 1020.45 1020.45 1020.43 1020.39 1020.32 1020.19 1020.00 1019.73 1019.37 1018.94 1018.44 1017.92 1017.38 1016.88 1016.42 1016.03 1015.69 1015.40 1015.14 1014.88 1014.60 1014.27 1013.90 1013.50 1013.06 1012.61 1012.18 1011.76 1011.38 1011.02 1010.67
1018.42 1018.80 1019.09 1019.31 1019.44 1019.50 1019.52 1019.50 1019.47 1019.44 1019.40 1019.34 1019.25 1019.10 1018.88 1018.58 1018.20 1017.76 1017.27 1016.78 1016.30 1015.86 1015.47 1015.14 1014.84 1014.57 1014.30 1014.01 1013.69 1013.32 1012.92 1012.50 1012.07 1011.64 1011.23 1010.84 1010.46 1010.08
1017.83 1018.17 1018.43 1018.59 1018.67 1018.67 1018.64 1018.57 1018.51 1018.45 1018.40 1018.35 1018.29 1018.18 1018.01 1017.77 1017.46 1017.08 1016.66 1016.21 1015.77 1015.35 1014.97 1014.63 1014.32 1014.03 1013.74 1013.43 1013.10 1012.73 1012.34 1011.93 1011.51 1011.10 1010.69 1010.30 1009.91 1009.51
1017.29 1017.59 1017.80 1017.92 1017.94 1017.90 1017.80 1017.69 1017.59 1017.50 1017.44 1017.40 1017.35 1017.29 1017.17 1017.00 1016.75 1016.44 1016.08 1015.68 1015.28 1014.88 1014.50 1014.15 1013.82 1013.51 1013.19 1012.86 1012.51 1012.14 1011.75 1011.35 1010.95 1010.56 1010.18 1009.79 1009.40 1008.98
1016.77 1017.03 1017.20 1017.27 1017.25 1017.16 1017.03 1016.89 1016.76 1016.65 1016.58 1016.54 1016.51 1016.47 1016.40 1016.28 1016.09 1015.84 1015.53 1015.18 1014.81 1014.43 1014.06 1013.69 1013.35 1013.00 1012.66 1012.31 1011.95 1011.57 1011.19 1010.81 1010.43 1010.06 1009.69 1009.32 1008.93 1008.50
1016.26 1016.47 1016.60 1016.64 1016.60 1016.49 1016.35 1016.18 1016.04 1015.92 1015.85 1015.81 1015.79 1015.77 1015.73 1015.64 1015.50 1015.29 1015.02 1014.71 1014.36 1013.99 1013.62 1013.25 1012.89 1012.53 1012.16 1011.80 1011.43 1011.06 1010.69 1010.32 1009.97 1009.62 1009.27 1008.91 1008.52 1008.08
1015.73 1015.91 1016.02 1016.05 1016.00 1015.89 1015.75 1015.59 1015.44 1015.33 1015.25 1015.22 1015.20 1015.19 1015.16 1015.09 1014.96 1014.78 1014.53 1014.24 1013.91 1013.55 1013.18 1012.82 1012.45 1012.09 1011.72 1011.36 1011.00 1010.64 1010.28 1009.93 1009.59 1009.26 1008.92 1008.57 1008.18 1007.73
1015.22 1015.38 1015.48 1015.51 1015.47 1015.38 1015.24 1015.10 1014.97 1014.87 1014.80 1014.76 1014.75 1014.73 1014.69 1014.62 1014.49 1014.31 1014.07 1013.78 1013.46 1013.11 1012.76 1012.40 1012.05 1011.70 1011.35 1011.00 1010.66 1010.31 1009.97 1009.63 1009.30 1008.96 1008.63 1008.27 1007.87 1007.42
1014.75 1014.90 1015.00 1015.04 1015.02 1014.95 1014.85 1014.73 1014.62 1014.54 1014.47 1014.43 1014.41 1014.37 1014.32 1014.22 1014.08 1013.88 1013.63 1013.34 1013.02 1012.69 1012.35 1012.02 1011.69 1011.36 1011.04 1010.72 1010.40 1010.07 1009.73 1009.39 1009.05 1008.71 1008.35 1007.97 1007.55 1007.09
1014.33 1014.48 1014.59 1014.65 1014.65 1014.61 1014.54 1014.45 1014.37 1014.30 1014.24 1014.19 1014.15 1014.09 1014.01 1013.88 1013.71 1013.49 1013.22 1012.92 1012.60 1012.28 1011.97 1011.66 1011.37 1011.08 1010.80 1010.51 1010.20 1009.88 1009.54 1009.18 1008.81 1008.43 1008.03 1007.61 1007.16 1006.67
1014.01 1014.16 1014.28 1014.34 1014.37 1014.34 1014.29 1014.23 1014.16 1014.10 1014.05 1014.00 1013.94 1013.86 1013.74 1013.58 1013.37 1013.12 1012.84 1012.53 1012.22 1011.91 1011.62 1011.35 1011.10 1010.85 1010.60 1010.33 1010.03 1009.71 1009.34 1008.95 1008.52 1008.08 1007.62 1007.14 1006.64 1006.13
1013.76 1013.91 1014.03 1014.10 1014.12 1014.11 1014.07 1014.02 1013.96 1013.91 1013.85 1013.79 1013.72 1013.62 1013.48 1013.30 1013.07 1012.79 1012.50 1012.19 1011.88 1011.59 1011.33 1011.09 1010.87 1010.65 1010.43 1010.17 1009.88 1009.52 1009.12 1008.66 1008.16 1007.64 1007.09 1006.53 1005.98 1005.44
1013.58 1013.71 1013.81 1013.86 1013.88 1013.85 1013.81 1013.76 1013.71 1013.66 1013.61 1013.55 1013.47 1013.36 1013.21 1013.01 1012.77 1012.49 1012.20 1011.89 1011.60 1011.33 1011.09 1010.88 1010.69 1010.50 1010.29 1010.03 1009.72 1009.33 1008.87 1008.33 1007.74 1007.12 1006.47 1005.83 1005.21 1004.62
1013.41 1013.52 1013.58 1013.60 1013.59 1013.54 1013.48 1013.43 1013.37 1013.32 1013.28 1013.23 1013.16 1013.06 1012.92 1012.73 1012.49 1012.23 1011.94 1011.65 1011.38 1011.14 1010.93 1010.75 1010.58 1010.40 1010.19 1009.93 1009.58 1009.15 1008.62 1008.00 1007.31 1006.58 1005.83 1005.10 1004.40 1003.75
1013.22 1013.28 1013.30 1013.27 1013.22 1013.14 1013.07 1012.99 1012.94 1012.90 1012.87 1012.84 1012.79 1012.72 1012.60 1012.44 1012.23 1011.99 1011.74 1011.48 1011.24 1011.03 1010.84 1010.69 1010.54 1010.37 1010.16 1009.88 1009.51 1009.03 1008.43 1007.73 1006.95 1006.12 1005.27 1004.44 1003.65 1002.94
1012.98 1012.98 1012.94 1012.86 1012.76 1012.66 1012.56 1012.48 1012.43 1012.40 1012.40 1012.40 1012.39 1012.35 1012.27 1012.15 1011.99 1011.79 1011.58 1011.37 1011.17 1010.99 1010.84 1010.72 1010.59 1010.43 1010.23 1009.94 1009.54 1009.02 1008.37 1007.60 1006.75 1005.83 1004.88 1003.96 1003.09 1002.31
1012.66 1012.59 1012.50 1012.37 1012.23 1012.10 1011.99 1011.91 1011.87 1011.87 1011.89 1011.93 1011.96 1011.97 1011.95 1011.88 1011.77 1011.63 1011.47 1011.31 1011.15 1011.02 1010.92 1010.82 1010.72 1010.59 1010.40 1010.11 1009.70 1009.16 1008.48 1007.67 1006.76 1005.77 1004.76 1003.75 1002.80 1001.94
Thickness
5527 5521 5515 5509 5503 5497 5491 5485 5477 5474 5475 5474 5470 5468 5462 5458 5454 5451 5448 5444 5442 5439 5437 5435 5433 5431 5429 5428 5427 5426 5426 5425 5425 5425 5426 5428 5429 5431
5521 5515 5509 5503 5497 5490 5484 5477 5471 5465 5462 5463 5459 5455 5451 5447 5442 5439 5436 5432 5429 5426 5423 5421 5418 5416 5414 5412 5410 5409 5408 5407 5407 5407 5408 5409 5410 5411
5515 5509 5503 5496 5489 5483 5476 5469 5463 5456 5453 5455 5449 5445 5439 5435 5431 5426 5422 5418 5414 5411 5408 5405 5403 5400 5398 5395 5393 5392 5390 5389 5389 5388 5388 5389 5389 5391
5509 5502 5496 5489 5482 5475 5468 5461 5455 5448 5443 5442 5439 5433 5428 5424 5419 5414 5409 5404 5400 5396 5393 5390 5387 5384 5381 5378 5376 5374 5372 5370 5369 5369 5369 5369 5369 5369
5503 5496 5490 5482 5475 5468 5461 5454 5447 5441 5434 5429 5427 5421 5417 5411 5406 5401 5396 5390 5385 5381 5377 5374 5370 5367 5363 5360 5358 5356 5354 5353 5352 5351 5350 5349 5349 5349
5497 5490 5483 5476 5469 5462 5454 5447 5439 5432 5424 5418 5414 5409 5403 5398 5390 5385 5382 5376 5371 5366 5362 5358 5354 5350 5346 5343 5341 5339 5337 5335 5334 5333 5332 5331 5330 5330
5489 5482 5476 5469 5463 5455 5447 5439 5431 5423 5415 5408 5403 5397 5391 5383 5376 5371 5367 5363 5357 5351 5347 5343 5338 5335 5330 5326 5324 5322 5321 5319 5319 5317 5316 5315 5314 5314
5481 5474 5468 5461 5454 5448 5441 5433 5425 5415 5406 5398 5391 5384 5378 5371 5364 5357 5350 5345 5343 5339 5332 5330 5324 5320 5316 5313 5310 5309 5307 5306 5304 5303 5302 5300 5299 5299
5474 5466 5459 5452 5445 5438 5431 5423 5415 5406 5399 5389 5380 5373 5366 5360 5352 5344 5336 5330 5326 5323 5316 5316 5311 5307 5304 5300 5298 5296 5295 5293 5292 5290 5288 5287 5286 5286
5465 5458 5450 5443 5435 5428 5421 5412 5403 5395 5387 5379 5371 5364 5356 5348 5339 5332 5325 5320 5316 5309 5302 5301 5300 5295 5293 5289 5286 5284 5282 5281 5279 5278 5277 5276 5275 5276
5456 5449 5441 5433 5428 5421 5412 5403 5394 5385 5376 5368 5360 5352 5345 5337 5328 5320 5313 5307 5304 5300 5293 5287 5287 5283 5281 5278 5274 5271 5270 5269 5268 5267 5267 5267 5266 5267
5446 5439 5432 5425 5418 5410 5400 5391 5382 5375 5366 5357 5348 5340 5332 5324 5316 5308 5300 5294 5290 5287 5284 5277 5274 5269 5270 5269 5265 5261 5259 5258 5258 5258 5258 5258 5259 5260
5437 5429 5421 5415 5408 5399 5390 5380 5372 5365 5354 5345 5336 5328 5320 5312 5305 5298 5290 5283 5279 5275 5272 5266 5263 5257 5254 5256 5256 5253 5251 5250 5250 5250 5251 5252 5253 5255
5428 5420 5412 5405 5397 5387 5378 5370 5361 5352 5341 5331 5323 5316 5308 5301 5295 5289 5283 5277 5271 5267 5263 5257 5253 5248 5245 5244 5245 5246 5244 5244 5244 5245 5245 5247 5248 5250
5418 5410 5402 5393 5384 5374 5366 5357 5347 5336 5327 5318 5311 5304 5297 5291 5285 5280 5275 5270 5265 5261 5257 5251 5246 5242 5238 5237 5237 5238 5238 5240 5240 5240 5241 5243 5245 5247
5405 5397 5389 5379 5370 5361 5352 5342 5332 5323 5314 5307 5300 5293 5287 5281 5275 5270 5265 5261 5256 5253 5250 5246 5242 5238 5235 5233 5232 5233 5232 5232 5235 5236 5238 5241 5244 5246
5394 5384 5374 5364 5355 5346 5337 5328 5319 5310 5302 5295 5288 5282 5276 5271 5266 5261 5256 5252 5247 5244 5242 5240 5237 5234 5233 5230 5230 5231 5231 5231 5232 5234 5235 5239 5244 5246
5383 5371 5361 5352 5343 5335 5326 5317 5308 5299 5291 5284 5277 5271 5266 5261 5257 5253 5248 5243 5240 5237 5234 5232 5230 5228 5228 5230 5230 5229 5228 5229 5231 5232 5234 5237 5243 5248
5369 5358 5349 5340 5331 5322 5313 5305 5296 5289 5281 5273 5267 5261 5256 5252 5248 5245 5241 5237 5233 5231 5228 5226 5223 5221 5221 5222 5226 5229 5227 5228 5229 5232 5234 5236 5240 5247
5355 5345 5336 5327 5318 5310 5302 5294 5286 5278 5271 5264 5258 5253 5248 5244 5241 5238 5234 5230 5228 5225 5223 5221 5219 5218 5217 5219 5221 5224 5227 5227 5228 5231 5234 5238 5242 5248
5342 5333 5324 5315 5307 5299 5291 5284 5277 5270 5263 5257 5251 5246 5241 5238 5235 5231 5228 5226 5223 5220 5218 5217 5218 5218 5217 5216 5216 5220 5225 5228 5229 5231 5234 5238 5243 5248
5331 5322 5313 5305 5297 5289 5282 5276 5269 5263 5257 5251 5246 5241 5237 5233 5230 5226 5223 5220 5218 5216 5214 5215 5215 5215 5214 5213 5214 5216 5220 5226 5230 5234 5237 5239 5241 5246
5320 5311 5303 5295 5287 5281 5274 5268 5263 5258 5253 5247 5242 5237 5233 5230 5226 5223 5220 5217 5215 5213 5212 5212 5212 5211 5211 5211 5211 5213 5217 5222 5227 5231 5237 5242 5246 5249